| time (UTC) | temp F | wind direction | speed MPH | gust MPH | rain 1hr in | rain 24hr in | rain mn in | humidity % | barometer mb |
| 20260509045002 | 56 | 336 | 0.0 | 0.0 | 0.00 | 0.00 | 0.00 | 51 | 1005.0 |
| 20260509044002 | 56 | 336 | 0.0 | 0.0 | 0.00 | 0.00 | 0.00 | 50 | 1004.6 |
| 20260509043002 | 57 | 336 | 0.0 | 0.0 | 0.00 | 0.00 | 0.00 | 50 | 1004.6 |
| 20260509042002 | 60 | 281 | 0.0 | 0.0 | 0.00 | 0.00 | 0.00 | 32 | 1004.1 |
| 20260509041003 | 60 | 281 | 0.0 | 0.0 | 0.00 | 0.00 | 0.00 | 34 | 1004.6 |
| 20260509040002 | 61 | 252 | 0.0 | 0.0 | 0.00 | 0.00 | 0.00 | 30 | 1004.6 |
| 20260509034002 | 61 | 256 | 0.0 | 0.0 | 0.00 | 0.00 | 0.00 | 32 | 1004.6 |
| 20260509033002 | 61 | 295 | 0.0 | 0.0 | 0.00 | 0.00 | 0.00 | 34 | 1004.6 |
| 20260509032024 | 62 | 277 | 0.0 | 0.0 | 0.00 | 0.00 | 0.00 | 36 | 1003.8 |
| 20260509031023 | 63 | 276 | 0.0 | 0.0 | 0.00 | 0.00 | 0.00 | 37 | 1004.3 |
| 20260509030003 | 64 | 277 | 0.0 | 0.0 | 0.00 | 0.00 | 0.00 | 34 | 1004.3 |
| 20260509025003 | 65 | 277 | 0.0 | 0.0 | 0.00 | 0.00 | 0.00 | 33 | 1003.9 |
| 20260509024024 | 65 | 277 | 0.0 | 0.0 | 0.00 | 0.00 | 0.00 | 30 | 1003.5 |
| 20260509023002 | 65 | 276 | 0.0 | 0.0 | 0.00 | 0.00 | 0.00 | 34 | 1003.5 |
| 20260509022003 | 66 | 273 | 0.0 | 0.0 | 0.00 | 0.00 | 0.00 | 36 | 1003.0 |
| 20260509021003 | 68 | 271 | 0.0 | 0.0 | 0.00 | 0.00 | 0.00 | 40 | 1003.4 |
| 20260509020003 | 69 | 267 | 0.0 | 0.0 | 0.00 | 0.00 | 0.00 | 39 | 1003.4 |
| 20260509015002 | 71 | 273 | 0.0 | 0.0 | 0.00 | 0.00 | 0.00 | 37 | 1002.7 |
| 20260509014023 | 72 | 268 | 0.0 | 1.0 | 0.00 | 0.00 | 0.00 | 32 | 1002.7 |
| 20260509013003 | 73 | 268 | 0.0 | 1.0 | 0.00 | 0.00 | 0.00 | 29 | 1002.7 |
| 20260509012003 | 74 | 270 | 0.0 | 0.0 | 0.00 | 0.00 | 0.00 | 30 | 1002.4 |
| 20260509011002 | 75 | 272 | 1.0 | 2.0 | 0.00 | 0.00 | 0.00 | 28 | 1003.3 |
| 20260509010023 | 77 | 273 | 0.0 | 0.0 | 0.00 | 0.00 | 0.00 | 24 | 1003.3 |
| 20260509005003 | 78 | 273 | 0.0 | 3.0 | 0.00 | 0.00 | 0.00 | 21 | 1002.9 |
| 20260509004003 | 78 | 289 | 0.0 | 1.0 | 0.00 | 0.00 | 0.00 | 22 | 1003.3 |
| 20260509003002 | 78 | 295 | 0.0 | 6.0 | 0.00 | 0.00 | 0.00 | 21 | 1003.3 |
| 20260509002002 | 78 | 251 | 0.0 | 5.0 | 0.00 | 0.00 | 0.00 | 22 | 1003.4 |
| 20260509001003 | 77 | 273 | 0.0 | 3.0 | 0.00 | 0.00 | 0.00 | 23 | 1003.9 |
| 20260509000003 | 77 | 280 | 0.0 | 2.0 | 0.00 | 0.00 | 0.00 | 23 | 1003.9 |
| 20260508235002 | 76 | 36 | 0.0 | 6.0 | 0.00 | 0.00 | 0.00 | 27 | 1003.8 |
| 20260508234023 | 77 | 33 | 3.0 | 6.0 | 0.00 | 0.00 | 0.00 | 25 | 1003.8 |
| 20260508233003 | 77 | 357 | 0.0 | 7.0 | 0.00 | 0.00 | 0.00 | 23 | 1003.8 |
| 20260508232003 | 78 | 344 | 2.0 | 8.0 | 0.00 | 0.00 | 0.00 | 24 | 1003.6 |
| 20260508231002 | 78 | 254 | 1.0 | 6.0 | 0.00 | 0.00 | 0.00 | 24 | 1003.5 |
| 20260508230003 | 77 | 103 | 0.0 | 8.0 | 0.00 | 0.00 | 0.00 | 26 | 1003.5 |
| 20260508225003 | 77 | 322 | 0.0 | 3.0 | 0.00 | 0.00 | 0.00 | 22 | 1003.7 |
| 20260508224003 | 76 | 288 | 0.0 | 2.0 | 0.00 | 0.00 | 0.00 | 23 | 1003.9 |
| 20260508223002 | 76 | 229 | 0.0 | 6.0 | 0.00 | 0.00 | 0.00 | 21 | 1003.9 |
| 20260508222003 | 76 | 122 | 1.0 | 8.0 | 0.00 | 0.00 | 0.00 | 23 | 1004.3 |
| 20260508221002 | 76 | 202 | 0.0 | 0.0 | 0.00 | 0.00 | 0.00 | 21 | 1004.4 |
| 20260508220002 | 77 | 252 | 0.0 | 8.0 | 0.00 | 0.00 | 0.00 | 20 | 1004.4 |
| 20260508215002 | 77 | 230 | 2.0 | 11.0 | 0.00 | 0.00 | 0.00 | 23 | 1004.9 |
| 20260508214024 | 76 | 343 | 1.0 | 12.0 | 0.00 | 0.00 | 0.00 | 22 | 1004.7 |
| 20260508213003 | 77 | 259 | 1.0 | 14.0 | 0.00 | 0.00 | 0.00 | 29 | 1004.7 |
| 20260508212002 | 76 | 287 | 1.0 | 11.0 | 0.00 | 0.00 | 0.00 | 25 | 1005.2 |
| 20260508211024 | 76 | 184 | 0.0 | 4.0 | 0.00 | 0.00 | 0.00 | 22 | 1004.9 |
| 20260508210003 | 76 | 271 | 0.0 | 11.0 | 0.00 | 0.00 | 0.00 | 27 | 1004.9 |
| 20260508205002 | 76 | 269 | 0.0 | 6.0 | 0.00 | 0.00 | 0.00 | 26 | 1005.3 |
| 20260508204002 | 76 | 232 | 5.0 | 12.0 | 0.00 | 0.00 | 0.00 | 24 | 1005.4 |
| 20260508203003 | 76 | 266 | 0.0 | 13.0 | 0.00 | 0.00 | 0.00 | 24 | 1005.4 |
| 20260508202002 | 76 | 245 | 4.0 | 14.0 | 0.00 | 0.00 | 0.00 | 24 | 1005.7 |
| 20260508201003 | 75 | 326 | 1.0 | 19.0 | 0.00 | 0.00 | 0.00 | 21 | 1005.7 |
| 20260508200003 | 75 | 211 | 1.0 | 14.0 | 0.00 | 0.00 | 0.00 | 26 | 1005.7 |
| 20260508195003 | 75 | 248 | 3.0 | 13.0 | 0.00 | 0.00 | 0.00 | 28 | 1006.0 |
| 20260508194003 | 75 | 228 | 6.0 | 14.0 | 0.00 | 0.00 | 0.00 | 23 | 1006.2 |
| 20260508193003 | 75 | 255 | 1.0 | 8.0 | 0.00 | 0.00 | 0.00 | 27 | 1006.2 |
| 20260508192003 | 74 | 256 | 0.0 | 16.0 | 0.00 | 0.00 | 0.00 | 21 | 1006.3 |
| 20260508191002 | 74 | 301 | 0.0 | 10.0 | 0.00 | 0.00 | 0.00 | 26 | 1006.1 |
| 20260508190003 | 74 | 120 | 0.0 | 10.0 | 0.00 | 0.00 | 0.00 | 22 | 1006.1 |
| 20260508185002 | 74 | 238 | 1.0 | 13.0 | 0.00 | 0.00 | 0.00 | 27 | 1006.5 |
| 20260508184002 | 73 | 284 | 1.0 | 12.0 | 0.00 | 0.00 | 0.00 | 28 | 1006.6 |
| 20260508183003 | 73 | 294 | 1.0 | 7.0 | 0.00 | 0.00 | 0.00 | 27 | 1006.6 |
| 20260508182003 | 72 | 250 | 0.0 | 6.0 | 0.00 | 0.00 | 0.00 | 25 | 1007.0 |
| 20260508181002 | 71 | 240 | 5.0 | 11.0 | 0.00 | 0.00 | 0.00 | 27 | 1006.9 |
| 20260508180003 | 71 | 79 | 0.0 | 1.0 | 0.00 | 0.00 | 0.00 | 29 | 1006.9 |
| 20260508175002 | 70 | 106 | 0.0 | 4.0 | 0.00 | 0.00 | 0.00 | 29 | 1007.6 |
| 20260508174002 | 69 | 57 | 1.0 | 3.0 | 0.00 | 0.00 | 0.00 | 29 | 1007.4 |
| 20260508173004 | 68 | 82 | 0.0 | 0.0 | 0.00 | 0.00 | 0.00 | 37 | 1007.4 |
| 20260508172002 | 68 | 98 | 0.0 | 2.0 | 0.00 | 0.00 | 0.00 | 37 | 1007.3 |
| 20260508171003 | 67 | 76 | 0.0 | 4.0 | 0.00 | 0.00 | 0.00 | 38 | 1007.4 |
| 20260508170002 | 67 | 91 | 0.0 | 5.0 | 0.00 | 0.00 | 0.00 | 37 | 1007.4 |
| 20260508165002 | 66 | 61 | 0.0 | 1.0 | 0.00 | 0.00 | 0.00 | 36 | 1007.6 |
| 20260508164002 | 66 | 81 | 0.0 | 0.0 | 0.00 | 0.00 | 0.00 | 44 | 1007.7 |
| 20260508163003 | 65 | 92 | 0.0 | 0.0 | 0.00 | 0.00 | 0.00 | 38 | 1007.7 |
| 20260508162002 | 64 | 54 | 0.0 | 5.0 | 0.00 | 0.00 | 0.00 | 43 | 1008.0 |
| 20260508161002 | 63 | 96 | 0.0 | 0.0 | 0.00 | 0.00 | 0.00 | 47 | 1007.7 |
| 20260508160003 | 62 | 76 | 0.0 | 0.0 | 0.00 | 0.00 | 0.00 | 49 | 1007.7 |
| 20260508155003 | 61 | 116 | 0.0 | 2.0 | 0.00 | 0.00 | 0.00 | 44 | 1007.8 |
| 20260508154003 | 60 | 117 | 1.0 | 5.0 | 0.00 | 0.00 | 0.00 | 45 | 1008.1 |
| 20260508153002 | 60 | 123 | 0.0 | 0.0 | 0.00 | 0.00 | 0.00 | 47 | 1008.1 |
| 20260508152002 | 59 | 99 | 0.0 | 0.0 | 0.00 | 0.00 | 0.00 | 51 | 1007.9 |
| 20260508151002 | 58 | 106 | 0.0 | 0.0 | 0.00 | 0.00 | 0.00 | 56 | 1008.0 |
| 20260508150003 | 57 | 100 | 0.0 | 0.0 | 0.00 | 0.00 | 0.00 | 57 | 1008.0 |
| 20260508145002 | 56 | 100 | 0.0 | 0.0 | 0.00 | 0.00 | 0.00 | 54 | 1008.4 |
| 20260508144024 | 54 | 19 | 0.0 | 0.0 | 0.00 | 0.00 | 0.00 | 54 | 1008.2 |
| 20260508143003 | 54 | 14 | 0.0 | 0.0 | 0.00 | 0.00 | 0.00 | 61 | 1008.2 |
| 20260508142002 | 53 | 17 | 0.0 | 0.0 | 0.00 | 0.00 | 0.00 | 60 | 1008.3 |
| 20260508141003 | 52 | 13 | 0.0 | 0.0 | 0.00 | 0.00 | 0.00 | 62 | 1007.0 |
| 20260508140003 | 52 | 14 | 0.0 | 0.0 | 0.00 | 0.00 | 0.00 | 66 | 1007.0 |
| 20260508135003 | 51 | 13 | 0.0 | 0.0 | 0.00 | 0.00 | 0.00 | 65 | 1006.9 |
| 20260508134003 | 50 | 14 | 0.0 | 0.0 | 0.00 | 0.00 | 0.00 | 66 | 1007.3 |
| 20260508133003 | 48 | 19 | 0.0 | 0.0 | 0.00 | 0.00 | 0.00 | 66 | 1007.3 |
| 20260508132003 | 46 | 19 | 0.0 | 0.0 | 0.00 | 0.00 | 0.00 | 67 | 1007.7 |
| 20260508131002 | 44 | 256 | 0.0 | 0.0 | 0.00 | 0.00 | 0.00 | 70 | 1006.7 |
| 20260508130003 | 43 | 253 | 0.0 | 0.0 | 0.00 | 0.00 | 0.00 | 71 | 1006.7 |
| 20260508125002 | 42 | 253 | 0.0 | 0.0 | 0.00 | 0.00 | 0.00 | 72 | 1006.9 |
| 20260508124003 | 42 | 256 | 0.0 | 0.0 | 0.00 | 0.00 | 0.00 | 72 | 1006.6 |
| 20260508123025 | 42 | 252 | 0.0 | 0.0 | 0.00 | 0.00 | 0.00 | 72 | 1006.6 |
| 20260508122003 | 42 | 257 | 0.0 | 0.0 | 0.00 | 0.00 | 0.00 | 72 | 1006.4 |
| 20260508121023 | 42 | 253 | 0.0 | 0.0 | 0.00 | 0.00 | 0.00 | 72 | 1006.0 |
| 20260508120002 | 42 | 253 | 0.0 | 0.0 | 0.00 | 0.00 | 0.00 | 72 | 1006.0 |
| 20260508115003 | 42 | 253 | 0.0 | 0.0 | 0.00 | 0.00 | 0.00 | 72 | 1005.8 |
| 20260508114002 | 42 | 254 | 0.0 | 0.0 | 0.00 | 0.00 | 0.00 | 71 | 1005.4 |
| 20260508113002 | 43 | 254 | 0.0 | 0.0 | 0.00 | 0.00 | 0.00 | 71 | 1005.4 |
| 20260508112003 | 43 | 254 | 0.0 | 0.0 | 0.00 | 0.00 | 0.00 | 70 | 1005.4 |
| 20260508111002 | 43 | 254 | 0.0 | 0.0 | 0.00 | 0.00 | 0.00 | 70 | 1005.2 |
| 20260508110003 | 44 | 254 | 0.0 | 0.0 | 0.00 | 0.00 | 0.00 | 69 | 1005.2 |
| 20260508105024 | 44 | 253 | 0.0 | 0.0 | 0.00 | 0.00 | 0.00 | 69 | 1005.2 |
| 20260508104002 | 44 | 254 | 0.0 | 0.0 | 0.00 | 0.00 | 0.00 | 71 | 1004.9 |
| 20260508103003 | 44 | 278 | 0.0 | 0.0 | 0.00 | 0.00 | 0.00 | 70 | 1004.9 |
| 20260508102004 | 44 | 278 | 0.0 | 0.0 | 0.00 | 0.00 | 0.00 | 70 | 1004.8 |
| 20260508101003 | 43 | 280 | 0.0 | 0.0 | 0.00 | 0.00 | 0.00 | 72 | 1005.0 |
| 20260508100004 | 43 | 280 | 0.0 | 0.0 | 0.00 | 0.00 | 0.00 | 73 | 1005.0 |
| 20260508095002 | 43 | 280 | 0.0 | 0.0 | 0.00 | 0.00 | 0.00 | 73 | 1005.1 |
| 20260508094003 | 43 | 280 | 0.0 | 0.0 | 0.00 | 0.00 | 0.00 | 73 | 1005.1 |
| 20260508093024 | 43 | 300 | 0.0 | 0.0 | 0.00 | 0.00 | 0.00 | 72 | 1005.1 |
| 20260508091003 | 44 | 300 | 0.0 | 0.0 | 0.00 | 0.00 | 0.00 | 72 | 1005.3 |
| 20260508090003 | 44 | 300 | 0.0 | 0.0 | 0.00 | 0.00 | 0.00 | 72 | 1005.3 |
| 20260508085002 | 44 | 301 | 0.0 | 0.0 | 0.00 | 0.00 | 0.00 | 71 | 1005.3 |
| 20260508084024 | 44 | 301 | 0.0 | 0.0 | 0.00 | 0.00 | 0.00 | 72 | 1005.3 |
| 20260508083002 | 44 | 298 | 0.0 | 0.0 | 0.00 | 0.00 | 0.00 | 72 | 1005.3 |
| 20260508082003 | 44 | 300 | 0.0 | 0.0 | 0.00 | 0.00 | 0.00 | 71 | 1005.5 |
| 20260508081003 | 44 | 300 | 0.0 | 0.0 | 0.00 | 0.00 | 0.00 | 72 | 1005.8 |
| 20260508080002 | 44 | 300 | 0.0 | 0.0 | 0.00 | 0.00 | 0.00 | 72 | 1005.8 |
| 20260508075024 | 44 | 301 | 0.0 | 0.0 | 0.00 | 0.00 | 0.00 | 72 | 1005.7 |
| 20260508074002 | 45 | 55 | 0.0 | 0.0 | 0.00 | 0.00 | 0.00 | 70 | 1005.7 |
| 20260508073002 | 46 | 302 | 0.0 | 0.0 | 0.00 | 0.00 | 0.00 | 69 | 1005.7 |
| 20260508072003 | 46 | 302 | 0.0 | 0.0 | 0.00 | 0.00 | 0.00 | 68 | 1005.8 |
| 20260508071002 | 46 | 304 | 0.0 | 0.0 | 0.00 | 0.00 | 0.00 | 68 | 1005.4 |
| 20260508070003 | 46 | 301 | 0.0 | 0.0 | 0.00 | 0.00 | 0.00 | 66 | 1005.4 |
| 20260508065003 | 47 | 302 | 0.0 | 0.0 | 0.00 | 0.00 | 0.00 | 65 | 1005.5 |
| 20260508064002 | 47 | 302 | 0.0 | 0.0 | 0.00 | 0.00 | 0.00 | 65 | 1005.4 |
| 20260508063023 | 47 | 302 | 0.0 | 0.0 | 0.00 | 0.00 | 0.00 | 65 | 1005.4 |
| 20260508062024 | 47 | 301 | 0.0 | 0.0 | 0.00 | 0.00 | 0.00 | 65 | 1005.0 |
| 20260508061003 | 48 | 302 | 0.0 | 0.0 | 0.00 | 0.00 | 0.00 | 64 | 1005.3 |
| 20260508060002 | 48 | 301 | 0.0 | 0.0 | 0.00 | 0.00 | 0.00 | 64 | 1005.3 |
| 20260508055023 | 49 | 302 | 0.0 | 0.0 | 0.00 | 0.00 | 0.00 | 64 | 1004.9 |
| 20260508054003 | 49 | 301 | 0.0 | 0.0 | 0.00 | 0.00 | 0.00 | 62 | 1004.9 |
| 20260508053003 | 50 | 302 | 0.0 | 0.0 | 0.00 | 0.00 | 0.00 | 62 | 1004.9 |
| 20260508052024 | 50 | 302 | 0.0 | 0.0 | 0.00 | 0.00 | 0.00 | 61 | 1005.0 |
| 20260508051002 | 51 | 301 | 0.0 | 0.0 | 0.00 | 0.00 | 0.00 | 61 | 1005.2 |
| 20260508050024 | 51 | 304 | 0.0 | 0.0 | 0.00 | 0.00 | 0.00 | 61 | 1005.2 |